• In Russia
  • List of Countries
  • For 7 days
  • Water Temperature
  • Satellite Maps
  • Weather Map
  • Weather Widgets
  • user-avatar
    Login

    Hourly Weather Albany

    Today, 16 January, Monday

    Time Temperature Precipitation Wind Pressure Humidity
    00:00 +17°C° 0 mm 2 mps 753 mmHg 85%
    01:00 +17°C° 0 mm 3 mps 753 mmHg 85%
    02:00 +18°C° 0 mm 3 mps 753 mmHg 84%
    03:00 +17°C° 0 mm 3 mps 753 mmHg 83%
    04:00 +17°C° 0 mm 3 mps 753 mmHg 81%
    05:00 +17°C° 0 mm 3 mps 753 mmHg 80%
    06:00 +18°C° 0 mm 4 mps 754 mmHg 74%
    07:00 +19°C° 0 mm 4 mps 754 mmHg 69%
    08:00 +20°C° 0 mm 4 mps 754 mmHg 63%
    09:00 +20°C° 0 mm 4 mps 754 mmHg 60%
    10:00 +21°C° 0 mm 4 mps 754 mmHg 57%
    11:00 +22°C° 0 mm 5 mps 754 mmHg 54%
    12:00 +22°C° 0 mm 5 mps 754 mmHg 55%
    13:00 +21°C° 0 mm 5 mps 754 mmHg 55%
    14:00 +21°C° 0 mm 6 mps 754 mmHg 53%
    15:00 +21°C° 0 mm 6 mps 755 mmHg 54%
    16:00 +20°C° 0 mm 5 mps 755 mmHg 54%
    17:00 +20°C° 0 mm 5 mps 755 mmHg 55%
    18:00 +19°C° 0 mm 5 mps 755 mmHg 59%
    19:00 +17°C° 0 mm 4 mps 756 mmHg 64%
    20:00 +15°C° 0 mm 4 mps 756 mmHg 68%
    21:00 +15°C° 0 mm 4 mps 757 mmHg 70%
    22:00 +14°C° 0 mm 4 mps 757 mmHg 72%
    23:00 +14°C° 0 mm 3 mps 757 mmHg 74%

    Tomorrow, 17 January, Tuesday

    Time Temperature Precipitation Wind Pressure Humidity
    00:00 +14°C° 0 mm 3 mps 757 mmHg 74%
    01:00 +13°C° 0 mm 3 mps 757 mmHg 74%
    02:00 +13°C° 0 mm 3 mps 757 mmHg 74%
    03:00 +13°C° 0 mm 3 mps 758 mmHg 73%
    04:00 +13°C° 0 mm 3 mps 758 mmHg 72%
    05:00 +14°C° 0 mm 3 mps 758 mmHg 71%
    06:00 +16°C° 0 mm 3 mps 758 mmHg 66%
    07:00 +17°C° 0 mm 3 mps 759 mmHg 61%
    08:00 +18°C° 0 mm 3 mps 759 mmHg 56%
    09:00 +19°C° 0 mm 3 mps 759 mmHg 53%
    10:00 +20°C° 0 mm 3 mps 759 mmHg 49%
    11:00 +21°C° 0 mm 3 mps 759 mmHg 46%
    12:00 +21°C° 0 mm 4 mps 759 mmHg 45%
    13:00 +22°C° 0 mm 4 mps 758 mmHg 44%
    14:00 +22°C° 0 mm 5 mps 758 mmHg 44%
    15:00 +22°C° 0 mm 5 mps 758 mmHg 46%
    16:00 +21°C° 0 mm 5 mps 758 mmHg 49%
    17:00 +20°C° 0 mm 6 mps 758 mmHg 51%
    18:00 +19°C° 0 mm 5 mps 758 mmHg 57%
    19:00 +17°C° 0 mm 5 mps 759 mmHg 62%
    20:00 +16°C° 0 mm 5 mps 759 mmHg 68%
    21:00 +15°C° 0 mm 5 mps 759 mmHg 70%
    22:00 +15°C° 0 mm 5 mps 759 mmHg 72%
    23:00 +14°C° 0 mm 5 mps 760 mmHg 74%

    Day after tomorrow, 18 January, Wednesday

    Time Temperature Precipitation Wind Pressure Humidity
    00:00 +14°C° 0 mm 5 mps 759 mmHg 76%
    01:00 +14°C° 0 mm 5 mps 759 mmHg 78%
    02:00 +13°C° 0 mm 5 mps 758 mmHg 80%
    03:00 +13°C° 0 mm 5 mps 758 mmHg 81%
    04:00 +13°C° 0 mm 5 mps 758 mmHg 82%
    05:00 +13°C° 0 mm 5 mps 757 mmHg 82%
    06:00 +15°C° 0 mm 6 mps 757 mmHg 75%
    07:00 +16°C° 0 mm 6 mps 757 mmHg 68%
    08:00 +17°C° 0 mm 6 mps 757 mmHg 61%
    09:00 +21°C° 0 mm 6 mps 757 mmHg 54%
    10:00 +23°C° 0 mm 5 mps 756 mmHg 47%
    11:00 +26°C° 0 mm 5 mps 756 mmHg 40%
    12:00 +27°C° 0 mm 5 mps 755 mmHg 37%
    13:00 +29°C° 0 mm 6 mps 754 mmHg 34%
    14:00 +30°C° 0 mm 6 mps 753 mmHg 32%
    15:00 +29°C° 0 mm 6 mps 753 mmHg 35%
    16:00 +29°C° 0 mm 7 mps 752 mmHg 38%
    17:00 +28°C° 0 mm 7 mps 752 mmHg 41%
    18:00 +26°C° 0 mm 6 mps 752 mmHg 47%
    19:00 +23°C° 0 mm 6 mps 752 mmHg 53%
    20:00 +21°C° 0 mm 5 mps 752 mmHg 59%
    21:00 +21°C° 0 mm 5 mps 752 mmHg 64%
    22:00 +20°C° 0 mm 4 mps 752 mmHg 69%
    23:00 +19°C° 0 mm 4 mps 752 mmHg 73%

    19 January, Thursday

    Time Temperature Precipitation Wind Pressure Humidity
    00:00 +19°C° 0.1 mm 5 mps 752 mmHg 76%
    01:00 +17°C° 0.1 mm 6 mps 752 mmHg 79%
    02:00 +17°C° 0.1 mm 7 mps 752 mmHg 83%
    03:00 +17°C° 0 mm 7 mps 752 mmHg 80%
    04:00 +16°C° 0 mm 7 mps 752 mmHg 77%
    05:00 +16°C° 0 mm 6 mps 753 mmHg 74%
    06:00 +17°C° 0 mm 6 mps 753 mmHg 71%
    07:00 +17°C° 0 mm 6 mps 754 mmHg 69%
    08:00 +19°C° 0 mm 6 mps 754 mmHg 67%
    09:00 +18°C° 0 mm 7 mps 755 mmHg 63%
    10:00 +20°C° 0 mm 7 mps 755 mmHg 60%
    11:00 +20°C° 0 mm 7 mps 755 mmHg 57%
    12:00 +21°C° 0 mm 7 mps 755 mmHg 53%
    13:00 +21°C° 0 mm 7 mps 755 mmHg 50%
    14:00 +22°C° 0 mm 6 mps 755 mmHg 47%
    15:00 +21°C° 0 mm 6 mps 755 mmHg 49%
    16:00 +21°C° 0 mm 6 mps 755 mmHg 51%
    17:00 +20°C° 0 mm 6 mps 755 mmHg 53%
    18:00 +19°C° 0 mm 5 mps 755 mmHg 57%
    19:00 +18°C° 0 mm 4 mps 756 mmHg 62%
    20:00 +17°C° 0 mm 4 mps 756 mmHg 67%
    21:00 +17°C° 0 mm 3 mps 756 mmHg 68%
    22:00 +16°C° 0 mm 3 mps 757 mmHg 70%
    23:00 +16°C° 0 mm 2 mps 757 mmHg 72%

    20 January, Friday

    Time Temperature Precipitation Wind Pressure Humidity
    00:00 +15°C° 0 mm 2 mps 757 mmHg 75%
    01:00 +14°C° 0 mm 2 mps 756 mmHg 78%
    02:00 +13°C° 0 mm 1 mps 756 mmHg 82%
    03:00 +13°C° 0 mm 1 mps 756 mmHg 84%
    04:00 +12°C° 0 mm 1 mps 756 mmHg 87%
    05:00 +11°C° 0 mm 1 mps 756 mmHg 90%
    06:00 +14°C° 0 mm 1 mps 756 mmHg 78%
    07:00 +19°C° 0 mm 1 mps 757 mmHg 66%
    08:00 +22°C° 0 mm 1 mps 757 mmHg 54%
    09:00 +23°C° 0 mm 1 mps 757 mmHg 50%
    10:00 +25°C° 0 mm 2 mps 757 mmHg 45%
    11:00 +27°C° 0 mm 2 mps 757 mmHg 40%
    12:00 +26°C° 0 mm 3 mps 756 mmHg 42%
    13:00 +26°C° 0 mm 3 mps 756 mmHg 43%
    14:00 +26°C° 0 mm 4 mps 756 mmHg 45%
    15:00 +25°C° 0 mm 3 mps 755 mmHg 49%
    16:00 +24°C° 0 mm 3 mps 755 mmHg 52%
    17:00 +22°C° 0 mm 3 mps 755 mmHg 55%
    18:00 +21°C° 0 mm 2 mps 755 mmHg 62%
    19:00 +19°C° 0 mm 2 mps 756 mmHg 69%
    20:00 +17°C° 0 mm 2 mps 756 mmHg 77%
    21:00 +17°C° 0 mm 2 mps 756 mmHg 79%
    22:00 +16°C° 0 mm 2 mps 756 mmHg 81%
    23:00 +16°C° 0 mm 3 mps 756 mmHg 83%

    21 January, Saturday

    Time Temperature Precipitation Wind Pressure Humidity
    00:00 +16°C° 0 mm 3 mps 756 mmHg 83%
    01:00 +14°C° 0 mm 3 mps 755 mmHg 84%
    02:00 +14°C° 0 mm 3 mps 755 mmHg 85%
    03:00 +14°C° 0 mm 2 mps 755 mmHg 85%
    04:00 +14°C° 0 mm 2 mps 755 mmHg 86%
    05:00 +13°C° 0 mm 2 mps 755 mmHg 86%
    06:00 +16°C° 0 mm 2 mps 755 mmHg 73%
    07:00 +19°C° 0 mm 2 mps 755 mmHg 60%
    08:00 +23°C° 0 mm 1 mps 755 mmHg 47%
    09:00 +26°C° 0 mm 2 mps 755 mmHg 41%
    10:00 +29°C° 0 mm 2 mps 754 mmHg 36%
    11:00 +31°C° 0 mm 2 mps 754 mmHg 31%
    12:00 +31°C° 0 mm 2 mps 754 mmHg 32%
    13:00 +31°C° 0 mm 3 mps 753 mmHg 33%
    14:00 +32°C° 0 mm 4 mps 753 mmHg 34%
    15:00 +30°C° 0 mm 4 mps 752 mmHg 37%
    16:00 +28°C° 0 mm 4 mps 752 mmHg 41%
    17:00 +27°C° 0 mm 4 mps 752 mmHg 45%
    18:00 +25°C° 0 mm 4 mps 753 mmHg 53%
    19:00 +22°C° 0 mm 3 mps 753 mmHg 62%
    20:00 +20°C° 0 mm 3 mps 753 mmHg 70%
    21:00 +19°C° 0 mm 3 mps 753 mmHg 74%
    22:00 +18°C° 0 mm 2 mps 753 mmHg 78%
    23:00 +17°C° 0 mm 2 mps 753 mmHg 82%
    Show more